Redmond, OR

2:35 AM PST on December 06, 2019 (GMT -0800)
Roberts Field Airport

Weather History for KRDM - October, 2019

Change the Weather History Date:

Sunday, October 20, 2019

  Actual Average Record
Temperature  
Mean Temperature 45 °F 46 °F  
Max Temperature 59 °F 62 °F 84 °F (1999)
Min Temperature 30 °F 31 °F 18 °F (1976)
Degree Days  
Heating Degree Days 20 19  
Month to date heating degree days 394 317  
Since 1 July heating degree days 659 716  
Cooling Degree Days 0 0  
Month to date cooling degree days 0 0  
Year to date cooling degree days 293 222  
Moisture  
Dew Point 34 °F    
Average Humidity 66    
Maximum Humidity 85    
Minimum Humidity 47    
Precipitation  
Precipitation 0.01 in 0.02 in 0.30 in (1951)
Month to date precipitation 0.28 0.36  
Year to date precipitation 9.27 6.50  
Sea Level Pressure  
Sea Level Pressure 30.10 in    
Wind  
Wind Speed 10 mph (South)    
Max Wind Speed 29 mph    
Max Gust Speed 35 mph    
Visibility 10 miles    
Events Rain    
T = Trace of Precipitation, MM = Missing Value Source: NWS Daily Summary

Daily Weather History Graph

Daily Weather History Graph

Search for Another Location

Airport or City:

Astronomy

Oct. 20, 2019 Rise Set
Actual Time 7:25 AM PDT 6:12 PM PDT
Civil Twilight 6:56 AM PDT 6:41 PM PDT
Nautical Twilight 6:22 AM PDT 7:15 PM PDT
Astronomical Twilight 5:48 AM PDT 7:48 PM PDT
Moon 11:18 PM PDT (10/20) 2:07 PM PDT (10/20)
Length of Visible Light 11h 45m
Length of Day
10h 46m
Waning Gibbous, 58% of the Moon is Illuminated
Oct 20
Waning Gibbous
Oct 21
Last Quarter
Oct 27
New
Nov 4
First Quarter
Nov 12
Full

Hourly Weather History & Observations

Time (PDT) Temp. Windchill Dew Point Humidity Pressure Visibility Wind Dir Wind Speed Gust Speed Precip Events Conditions
12:56 AM 36.0 °F - 30.0 °F 79% 30.12 in 10.0 mi Calm Calm - N/A   Clear
1:56 AM 35.1 °F 28.6 °F 30.0 °F 82% 30.14 in 10.0 mi SW 8.1 mph - N/A   Clear
2:56 AM 33.1 °F 30.0 °F 28.0 °F 82% 30.14 in 10.0 mi ESE 3.5 mph - N/A   Clear
3:56 AM 32.0 °F 28.7 °F 28.0 °F 85% 30.13 in 10.0 mi South 3.5 mph - N/A   Clear
4:56 AM 34.0 °F 28.0 °F 28.9 °F 82% 30.14 in 10.0 mi SSE 6.9 mph - N/A   Mostly Cloudy
5:56 AM 36.0 °F 31.1 °F 30.0 °F 79% 30.13 in 10.0 mi SSE 5.8 mph - N/A   Overcast
6:56 AM 37.9 °F 32.7 °F 30.9 °F 76% 30.12 in 10.0 mi SSE 6.9 mph - N/A   Overcast
7:56 AM 37.9 °F 35.5 °F 30.9 °F 76% 30.13 in 10.0 mi East 3.5 mph - N/A   Overcast
8:56 AM 39.0 °F 36.8 °F 33.1 °F 79% 30.13 in 10.0 mi East 3.5 mph - 0.00 in Rain Light Rain
9:56 AM 42.1 °F 39.2 °F 32.0 °F 67% 30.13 in 10.0 mi SSE 4.6 mph - 0.00 in   Overcast
10:56 AM 45.0 °F 41.2 °F 30.9 °F 58% 30.11 in 10.0 mi SSE 6.9 mph - N/A   Overcast
11:56 AM 46.0 °F 41.4 °F 32.0 °F 58% 30.11 in 10.0 mi SE 9.2 mph - 0.00 in   Overcast
12:56 PM 48.9 °F - 35.1 °F 59% 30.09 in 10.0 mi East 5.8 mph - 0.00 in Rain Light Rain
1:56 PM 52.0 °F - 39.9 °F 63% 30.07 in 10.0 mi SE 6.9 mph - 0.01 in Rain Light Rain
2:56 PM 59.0 °F - 39.9 °F 49% 30.03 in 10.0 mi NE 8.1 mph - 0.00 in   Mostly Cloudy
3:56 PM 54.0 °F - 39.9 °F 59% 30.05 in 10.0 mi Variable 3.5 mph - N/A   Mostly Cloudy
4:23 PM 57.9 °F - 39.9 °F 51% 30.02 in 10.0 mi WNW 19.6 mph 33.4 mph N/A   Clear
4:56 PM 57.9 °F - 37.9 °F 47% 30.05 in 10.0 mi WNW 25.3 mph 34.5 mph N/A   Clear
5:56 PM 55.0 °F - 37.0 °F 51% 30.06 in 10.0 mi West 12.7 mph 21.9 mph N/A   Clear
6:56 PM 53.1 °F - 37.0 °F 55% 30.06 in 10.0 mi WSW 18.4 mph - N/A   Clear
7:56 PM 53.1 °F - 36.0 °F 52% 30.09 in 10.0 mi West 19.6 mph 26.5 mph N/A   Clear
8:56 PM 52.0 °F - 36.0 °F 54% 30.09 in 10.0 mi West 15.0 mph 24.2 mph N/A   Clear
10:56 PM 51.1 °F - 35.1 °F 54% 30.09 in 10.0 mi West 12.7 mph 27.6 mph N/A   Clear
11:56 PM 50.0 °F - 34.0 °F 54% 30.12 in 10.0 mi Variable 4.6 mph - N/A   Mostly Cloudy